TimeEST,TemperatureF,Dew PointF,Humidity,Sea Level PressureIn,VisibilityMPH,Wind Direction,Wind SpeedMPH,Gust SpeedMPH,PrecipitationIn,Events,Conditions,WindDirDegrees,DateUTC
12:53 AM,23.0,19.0,85,30.35,9.0,North,3.5,-,N/A,,Clear,10,2014-01-01 05:53:00
1:53 AM,23.0,19.0,85,30.33,9.0,Calm,Calm,-,N/A,,Clear,0,2014-01-01 06:53:00
2:53 AM,23.0,19.0,85,30.34,9.0,Calm,Calm,-,N/A,,Clear,0,2014-01-01 07:53:00
3:53 AM,25.0,19.0,78,30.34,10.0,Calm,Calm,-,N/A,,Clear,0,2014-01-01 08:53:00
4:53 AM,21.9,18.0,85,30.33,8.0,Calm,Calm,-,N/A,,Clear,0,2014-01-01 09:53:00
5:53 AM,21.9,18.0,85,30.32,9.0,Calm,Calm,-,N/A,,Clear,0,2014-01-01 10:53:00
6:53 AM,21.0,17.1,85,30.32,9.0,Calm,Calm,-,N/A,,Clear,0,2014-01-01 11:53:00
7:53 AM,21.0,17.1,85,30.33,9.0,North,3.5,-,N/A,,Partly Cloudy,360,2014-01-01 12:53:00
8:53 AM,21.9,18.0,85,30.34,10.0,Calm,Calm,-,N/A,,Partly Cloudy,0,2014-01-01 13:53:00
9:53 AM,28.9,23.0,78,30.32,10.0,Calm,Calm,-,N/A,,Scattered Clouds,0,2014-01-01 14:53:00
10:53 AM,33.1,24.1,70,30.31,10.0,NNE,3.5,-,N/A,,Scattered Clouds,30,2014-01-01 15:53:00
11:53 AM,37.0,26.1,65,30.29,10.0,South,3.5,-,N/A,,Partly Cloudy,180,2014-01-01 16:53:00
12:53 PM,42.1,24.1,49,30.23,10.0,Calm,Calm,-,N/A,,Partly Cloudy,0,2014-01-01 17:53:00
1:53 PM,46.0,25.0,44,30.19,10.0,WSW,5.8,-,N/A,,Partly Cloudy,240,2014-01-01 18:53:00
2:53 PM,48.0,23.0,37,30.17,10.0,WNW,6.9,-,N/A,,Partly Cloudy,290,2014-01-01 19:53:00
3:53 PM,48.9,21.0,33,30.16,10.0,NW,4.6,-,N/A,,Partly Cloudy,310,2014-01-01 20:53:00
4:53 PM,45.0,21.9,40,30.16,10.0,West,3.5,-,N/A,,Partly Cloudy,280,2014-01-01 21:53:00
5:53 PM,37.9,23.0,55,30.16,10.0,Calm,Calm,-,N/A,,Scattered Clouds,0,2014-01-01 22:53:00
6:53 PM,34.0,23.0,64,30.16,10.0,Calm,Calm,-,N/A,,Clear,0,2014-01-01 23:53:00
7:53 PM,32.0,24.1,73,30.16,10.0,Calm,Calm,-,N/A,,Clear,0,2014-01-02 00:53:00
8:53 PM,30.9,23.0,72,30.15,10.0,Calm,Calm,-,N/A,,Clear,0,2014-01-02 01:53:00
9:53 PM,28.9,23.0,78,30.13,10.0,Calm,Calm,-,N/A,,Clear,0,2014-01-02 02:53:00
10:53 PM,28.0,21.9,78,30.11,10.0,Calm,Calm,-,N/A,,Clear,0,2014-01-02 03:53:00
11:53 PM,28.0,23.0,81,30.08,10.0,Calm,Calm,-,N/A,,Clear,0,2014-01-02 04:53:00